| time (UTC) | temp F | wind direction | speed knots | gust knots | rain 1hr in | rain 24hr in | rain mn in | humidity % | barometer mb |
| 20260503224506 | 60 | 276 | 6.1 | 15.6 | 0.00 | 0.00 | 0.00 | 42 | 1012.5 |
| 20260503223015 | 60 | 228 | 7.0 | 14.8 | 0.00 | 0.00 | 0.00 | 41 | 1012.6 |
| 20260503221526 | 61 | 207 | 10.4 | 15.6 | 0.00 | 0.00 | 0.00 | 41 | 1012.7 |
| 20260503220004 | 60 | 241 | 8.7 | 18.2 | 0.00 | 0.00 | 0.00 | 41 | 1012.7 |
| 20260503214512 | 60 | 238 | 8.7 | 14.8 | 0.00 | 0.00 | 0.00 | 41 | 1012.7 |
| 20260503213008 | 60 | 238 | 8.7 | 13.9 | 0.00 | 0.00 | 0.00 | 41 | 1012.8 |
| 20260503211507 | 59 | 240 | 5.2 | 13.9 | 0.00 | 0.00 | 0.00 | 42 | 1012.8 |
| 20260503210022 | 60 | 244 | 7.0 | 16.5 | 0.00 | 0.00 | 0.00 | 44 | 1013.0 |
| 20260503204505 | 60 | 276 | 9.6 | 13.9 | 0.00 | 0.00 | 0.00 | 43 | 1012.9 |
| 20260503203011 | 60 | 186 | 8.7 | 14.8 | 0.00 | 0.00 | 0.00 | 43 | 1013.0 |
| 20260503201516 | 61 | 205 | 4.3 | 14.8 | 0.00 | 0.00 | 0.00 | 44 | 1013.1 |
| 20260503200004 | 60 | 267 | 10.4 | 19.1 | 0.00 | 0.00 | 0.00 | 43 | 1013.3 |
| 20260503194505 | 60 | 220 | 8.7 | 18.2 | 0.00 | 0.00 | 0.00 | 43 | 1013.4 |
| 20260503193005 | 61 | 221 | 7.8 | 19.1 | 0.00 | 0.00 | 0.00 | 43 | 1013.8 |
| 20260503191504 | 61 | 265 | 8.7 | 15.6 | 0.00 | 0.00 | 0.00 | 43 | 1014.0 |
| 20260503190004 | 60 | 276 | 8.7 | 14.8 | 0.00 | 0.00 | 0.00 | 43 | 1014.2 |
| 20260503184508 | 60 | 274 | 7.8 | 14.8 | 0.00 | 0.00 | 0.00 | 44 | 1014.5 |
| 20260503183009 | 60 | 280 | 6.1 | 12.2 | 0.00 | 0.00 | 0.00 | 44 | 1014.6 |
| 20260503181510 | 59 | 217 | 7.8 | 13.9 | 0.00 | 0.00 | 0.00 | 49 | 1014.7 |
| 20260503180011 | 59 | 248 | 9.6 | 15.6 | 0.00 | 0.00 | 0.00 | 49 | 1014.8 |
| 20260503174505 | 59 | 295 | 7.8 | 13.9 | 0.00 | 0.00 | 0.00 | 51 | 1015.1 |
| 20260503173005 | 59 | 274 | 5.2 | 13.9 | 0.00 | 0.00 | 0.00 | 52 | 1015.2 |
| 20260503171504 | 59 | 246 | 4.3 | 14.8 | 0.00 | 0.00 | 0.00 | 51 | 1015.5 |
| 20260503081520 | 34 | 227 | 0.0 | 0.0 | 0.00 | 0.12 | 0.00 | 89 | 1016.7 |
| 20260503071518 | 36 | 235 | 0.0 | 0.9 | 0.00 | 0.13 | 0.00 | 88 | 1016.7 |
| 20260503054521 | 36 | 214 | 0.0 | 0.0 | 0.00 | 0.13 | 0.00 | 89 | 1017.0 |
| 20260503053023 | 36 | 203 | 0.0 | 0.0 | 0.00 | 0.13 | 0.00 | 88 | 1017.1 |
| 20260503051521 | 36 | 203 | 0.0 | 0.0 | 0.00 | 0.13 | 0.00 | 87 | 1017.1 |
| 20260503050022 | 37 | 203 | 0.0 | 0.0 | 0.00 | 0.13 | 0.00 | 83 | 1017.1 |
| 20260503044518 | 38 | 203 | 0.0 | 0.0 | 0.00 | 0.13 | 0.00 | 82 | 1017.2 |
| 20260503043022 | 39 | 203 | 0.0 | 0.0 | 0.00 | 0.13 | 0.00 | 80 | 1017.2 |
| 20260503041505 | 40 | 234 | 0.0 | 0.0 | 0.00 | 0.13 | 0.00 | 78 | 1017.2 |
| 20260503040006 | 41 | 210 | 0.9 | 3.5 | 0.00 | 0.13 | 0.00 | 78 | 1017.2 |
| 20260503034504 | 41 | 245 | 0.0 | 1.7 | 0.00 | 0.13 | 0.13 | 78 | 1017.4 |
| 20260503033006 | 41 | 231 | 0.0 | 2.6 | 0.00 | 0.13 | 0.13 | 77 | 1017.5 |
| 20260503031506 | 41 | 227 | 0.0 | 2.6 | 0.00 | 0.14 | 0.13 | 77 | 1017.5 |
| 20260503030007 | 41 | 228 | 0.9 | 2.6 | 0.00 | 0.15 | 0.13 | 76 | 1017.4 |
| 20260503024508 | 42 | 248 | 0.0 | 2.6 | 0.00 | 0.20 | 0.13 | 76 | 1017.6 |
| 20260503023007 | 42 | 235 | 0.9 | 2.6 | 0.00 | 0.22 | 0.13 | 75 | 1017.8 |
| 20260503021513 | 42 | 239 | 0.0 | 2.6 | 0.00 | 0.22 | 0.13 | 75 | 1017.7 |
| 20260503020005 | 42 | 237 | 0.0 | 2.6 | 0.00 | 0.22 | 0.13 | 74 | 1017.7 |
| 20260503014507 | 42 | 232 | 0.0 | 1.7 | 0.00 | 0.22 | 0.13 | 76 | 1017.6 |
| 20260503013009 | 41 | 223 | 0.0 | 0.9 | 0.00 | 0.22 | 0.13 | 77 | 1017.6 |
| 20260503011512 | 41 | 196 | 0.0 | 0.0 | 0.00 | 0.22 | 0.13 | 77 | 1017.6 |
| 20260503010008 | 41 | 193 | 0.0 | 0.0 | 0.00 | 0.22 | 0.13 | 75 | 1017.5 |
| 20260503004510 | 42 | 193 | 0.0 | 0.0 | 0.00 | 0.22 | 0.13 | 73 | 1017.4 |
| 20260503003003 | 42 | 193 | 0.0 | 0.9 | 0.00 | 0.22 | 0.13 | 71 | 1017.4 |
| 20260503001512 | 43 | 242 | 0.0 | 0.9 | 0.00 | 0.22 | 0.13 | 69 | 1017.4 |
| 20260503000015 | 43 | 246 | 0.0 | 0.9 | 0.00 | 0.22 | 0.13 | 66 | 1017.3 |
| 20260502234526 | 44 | 283 | 0.0 | 1.7 | 0.00 | 0.22 | 0.13 | 64 | 1017.2 |
| 20260502233012 | 44 | 293 | 1.7 | 5.2 | 0.00 | 0.22 | 0.13 | 61 | 1017.2 |
| 20260502231507 | 44 | 291 | 2.6 | 6.1 | 0.00 | 0.22 | 0.13 | 60 | 1017.2 |
| 20260502230014 | 44 | 290 | 3.5 | 7.0 | 0.00 | 0.22 | 0.13 | 59 | 1017.3 |